AUA1Y LOWW-EDDF

Flight info

Callsign AUA1Y
Flight time N/A
Altitude 30000
Route LUGEM DCT SUBEN T161 DEBHI DEBHI1B
Aircraft A321/M-SDE2E3FGIJ1RWXY/LB1

Departure

Time N/A
Airport Vienna International Airport (LOWW)

Arrival

Time 2026-04-15 14:09
Airport Frankfurt Main Airport (EDDF)
Time Latitude Longitude Altitude Speed Heading
2026-04-15 13:15 48.17587 15.69828 17372 ft 373 kts 279°
2026-04-15 13:15 48.18054 15.65997 17890 ft 375 kts 279°
2026-04-15 13:15 48.18518 15.62185 18386 ft 378 kts 279°
2026-04-15 13:15 48.18989 15.58305 18821 ft 380 kts 279°
2026-04-15 13:16 48.19459 15.54399 19246 ft 382 kts 279°
2026-04-15 13:16 48.19929 15.50469 19648 ft 384 kts 279°
2026-04-15 13:16 48.20398 15.46525 20058 ft 385 kts 279°
2026-04-15 13:16 48.20867 15.42565 20467 ft 387 kts 279°
2026-04-15 13:17 48.21337 15.38574 20816 ft 390 kts 279°
2026-04-15 13:17 48.21809 15.34563 21203 ft 392 kts 279°
2026-04-15 13:17 48.22286 15.30516 21564 ft 395 kts 279°
2026-04-15 13:17 48.22765 15.26454 21983 ft 396 kts 279°
2026-04-15 13:18 48.23244 15.22366 22380 ft 399 kts 279°
2026-04-15 13:18 48.23724 15.18265 22802 ft 401 kts 279°
2026-04-15 13:18 48.24204 15.14140 23203 ft 403 kts 279°
2026-04-15 13:18 48.24685 15.09979 23600 ft 406 kts 279°
2026-04-15 13:19 48.25166 15.05795 23925 ft 409 kts 279°
2026-04-15 13:19 48.25649 15.01574 24254 ft 411 kts 279°
2026-04-15 13:19 48.26131 14.97343 24605 ft 413 kts 279°
2026-04-15 13:19 48.26616 14.93095 24973 ft 413 kts 280°
2026-04-15 13:20 48.27103 14.88830 25300 ft 416 kts 280°
2026-04-15 13:20 48.27591 14.84539 25589 ft 418 kts 280°
2026-04-15 13:20 48.28081 14.80214 25878 ft 421 kts 280°
2026-04-15 13:20 48.28571 14.75868 26179 ft 424 kts 280°
2026-04-15 13:21 48.29060 14.71498 26471 ft 426 kts 281°
2026-04-15 13:21 48.29555 14.67083 26701 ft 430 kts 281°
2026-04-15 13:21 48.30052 14.62638 26971 ft 433 kts 281°
2026-04-15 13:21 48.30552 14.58156 27253 ft 436 kts 281°
2026-04-15 13:22 48.31052 14.53652 27534 ft 439 kts 281°
2026-04-15 13:22 48.31553 14.49123 27824 ft 441 kts 281°
2026-04-15 13:22 48.32055 14.44562 28109 ft 443 kts 281°
2026-04-15 13:22 48.32556 14.39982 28391 ft 446 kts 281°
2026-04-15 13:23 48.33055 14.35371 28668 ft 448 kts 281°
2026-04-15 13:23 48.33557 14.30720 28916 ft 450 kts 282°
2026-04-15 13:23 48.34060 14.26059 29108 ft 454 kts 282°
2026-04-15 13:23 48.34566 14.21362 29312 ft 457 kts 282°
2026-04-15 13:24 48.35076 14.16631 29523 ft 459 kts 282°
2026-04-15 13:24 48.35585 14.11883 29734 ft 461 kts 282°
2026-04-15 13:24 48.36089 14.07173 29931 ft 463 kts 282°
2026-04-15 13:24 48.36606 14.02323 30127 ft 464 kts 282°
2026-04-15 13:25 48.37588 13.92914 30199 ft 448 kts 282°
2026-04-15 13:25 48.38533 13.83756 30204 ft 445 kts 283°
2026-04-15 13:26 48.39583 13.74602 30201 ft 440 kts 291°
2026-04-15 13:26 48.41998 13.66253 30202 ft 435 kts 300°
2026-04-15 13:27 48.44578 13.58013 30200 ft 435 kts 300°
2026-04-15 13:27 48.47159 13.49775 30201 ft 435 kts 300°
2026-04-15 13:28 48.49739 13.41537 30198 ft 434 kts 300°
2026-04-15 13:28 48.52299 13.33297 30208 ft 433 kts 300°
2026-04-15 13:29 48.54834 13.25061 30215 ft 433 kts 299°
2026-04-15 13:29 48.57367 13.16822 30214 ft 432 kts 299°
2026-04-15 13:30 48.59894 13.08594 30199 ft 432 kts 299°
2026-04-15 13:30 48.62411 13.00370 30212 ft 431 kts 299°
2026-04-15 13:31 48.64914 12.92154 30209 ft 430 kts 299°
2026-04-15 13:31 48.67412 12.83950 30214 ft 429 kts 299°
2026-04-15 13:32 48.69906 12.75743 30214 ft 429 kts 299°
2026-04-15 13:32 48.72388 12.67530 30214 ft 429 kts 299°
2026-04-15 13:33 48.74861 12.59304 30210 ft 429 kts 299°
2026-04-15 13:33 48.77328 12.51074 30213 ft 429 kts 299°
2026-04-15 13:34 48.79798 12.42845 30216 ft 429 kts 299°
2026-04-15 13:34 48.82256 12.34601 30216 ft 429 kts 299°
2026-04-15 13:35 48.84712 12.26349 30212 ft 428 kts 298°
2026-04-15 13:35 48.87140 12.18174 30225 ft 427 kts 298°
2026-04-15 13:36 48.89567 12.09946 30231 ft 426 kts 298°
2026-04-15 13:36 48.91980 12.01728 30234 ft 425 kts 298°
2026-04-15 13:37 48.94381 11.93512 30228 ft 425 kts 298°
2026-04-15 13:37 48.96775 11.85306 30223 ft 424 kts 298°
2026-04-15 13:38 48.98761 11.78495 30228 ft 423 kts 298°
2026-04-15 13:38 49.01140 11.70318 30224 ft 422 kts 298°
2026-04-15 13:39 49.03515 11.62132 30222 ft 422 kts 298°
2026-04-15 13:39 49.05871 11.53942 30217 ft 422 kts 298°
2026-04-15 13:40 49.08223 11.45755 30207 ft 421 kts 297°
2026-04-15 13:40 49.10567 11.37574 30210 ft 421 kts 297°
2026-04-15 13:41 49.12894 11.29393 30207 ft 420 kts 297°
2026-04-15 13:41 49.15232 11.21236 30206 ft 419 kts 301°
2026-04-15 13:42 49.18173 11.13598 29751 ft 418 kts 304°
2026-04-15 13:42 49.19672 11.09795 29290 ft 418 kts 304°
2026-04-15 13:42 49.21173 11.05990 28856 ft 418 kts 304°
2026-04-15 13:43 49.22668 11.02189 28475 ft 416 kts 303°
2026-04-15 13:43 49.24149 10.98410 28076 ft 413 kts 303°
2026-04-15 13:43 49.25623 10.94641 27681 ft 411 kts 303°
2026-04-15 13:43 49.27087 10.90892 27295 ft 410 kts 303°
2026-04-15 13:44 49.28546 10.87154 26911 ft 408 kts 303°
2026-04-15 13:44 49.29998 10.83424 26534 ft 407 kts 303°
2026-04-15 13:44 49.31441 10.79709 26160 ft 405 kts 302°
2026-04-15 13:44 49.32880 10.76001 25786 ft 404 kts 302°
2026-04-15 13:45 49.34312 10.72308 25414 ft 402 kts 302°
2026-04-15 13:45 49.35735 10.68631 25060 ft 400 kts 302°
2026-04-15 13:45 49.37151 10.64963 24697 ft 399 kts 301°
2026-04-15 13:47 49.46916 10.39621 22007 ft 388 kts 301°
2026-04-15 13:47 49.48278 10.36053 21624 ft 386 kts 301°
2026-04-15 13:47 49.49632 10.32496 21242 ft 384 kts 300°
2026-04-15 13:48 49.50977 10.28957 20867 ft 382 kts 300°
2026-04-15 13:48 49.52318 10.25439 20500 ft 380 kts 300°
2026-04-15 13:48 49.53655 10.21931 20131 ft 379 kts 300°
2026-04-15 13:48 49.54983 10.18439 19766 ft 377 kts 300°
2026-04-15 13:49 49.56309 10.14951 19402 ft 376 kts 300°
2026-04-15 13:49 49.57622 10.11487 19051 ft 375 kts 300°
2026-04-15 13:49 49.58936 10.08020 18716 ft 373 kts 299°
2026-04-15 13:49 49.60240 10.04569 18375 ft 372 kts 299°
2026-04-15 13:50 49.61520 10.01172 17997 ft 370 kts 299°
2026-04-15 13:50 49.62809 9.97748 17626 ft 368 kts 299°
2026-04-15 13:50 49.64094 9.94341 17264 ft 366 kts 299°
2026-04-15 13:50 49.65368 9.90959 16890 ft 363 kts 299°
2026-04-15 13:51 49.66629 9.87604 16533 ft 360 kts 299°
2026-04-15 13:51 49.67881 9.84267 16182 ft 358 kts 299°
2026-04-15 13:51 49.69123 9.80949 15832 ft 356 kts 299°
2026-04-15 13:51 49.70357 9.77643 15481 ft 354 kts 299°
2026-04-15 13:52 49.71584 9.74352 15139 ft 352 kts 299°
2026-04-15 13:52 49.72804 9.71077 14799 ft 351 kts 299°
2026-04-15 13:52 49.74017 9.67820 14466 ft 349 kts 299°
2026-04-15 13:52 49.75222 9.64582 14134 ft 347 kts 299°
2026-04-15 13:53 49.76419 9.61368 13773 ft 343 kts 299°
2026-04-15 13:53 49.77605 9.58181 13401 ft 341 kts 299°
2026-04-15 13:53 49.78786 9.54998 13041 ft 340 kts 299°
2026-04-15 13:53 49.79951 9.51858 12702 ft 331 kts 298°
2026-04-15 13:54 49.81075 9.48815 12471 ft 320 kts 298°
2026-04-15 13:54 49.82158 9.45876 12241 ft 309 kts 298°
2026-04-15 13:54 49.83203 9.43032 12009 ft 299 kts 298°
2026-04-15 13:54 49.84220 9.40277 11784 ft 290 kts 298°
2026-04-15 13:55 49.85209 9.37604 11561 ft 282 kts 298°
2026-04-15 13:55 49.86119 9.34966 11277 ft 274 kts 292°
2026-04-15 13:55 49.86728 9.32231 10910 ft 264 kts 284°
2026-04-15 13:55 49.87231 9.29544 10547 ft 256 kts 285°
2026-04-15 13:56 49.87733 9.26921 10188 ft 252 kts 285°
2026-04-15 13:56 49.88233 9.24325 9798 ft 251 kts 285°
2026-04-15 13:56 49.88731 9.21737 9402 ft 250 kts 285°
2026-04-15 13:56 49.89228 9.19155 9006 ft 250 kts 285°
2026-04-15 13:57 49.89721 9.16580 8631 ft 249 kts 285°
2026-04-15 13:57 49.90393 9.14125 8292 ft 248 kts 306°
2026-04-15 13:57 49.91722 9.12469 7968 ft 249 kts 337°
2026-04-15 13:57 49.93420 9.12093 7662 ft 250 kts
2026-04-15 13:58 49.95021 9.13085 7361 ft 250 kts 34°
2026-04-15 13:58 49.96421 9.14681 7068 ft 250 kts 38°
2026-04-15 13:58 49.97780 9.16348 6779 ft 249 kts 39°
2026-04-15 13:58 49.99134 9.18023 6514 ft 248 kts 39°
2026-04-15 13:59 50.00478 9.19684 6252 ft 246 kts 39°
2026-04-15 13:59 50.01815 9.21334 5992 ft 245 kts 39°
2026-04-15 13:59 50.03272 9.22657 5734 ft 243 kts 15°
2026-04-15 13:59 50.04944 9.22839 5477 ft 242 kts 356°
2026-04-15 14:00 50.06615 9.22620 5227 ft 241 kts 354°
2026-04-15 14:00 50.08276 9.22347 4969 ft 240 kts 354°
2026-04-15 14:00 50.09927 9.22037 4710 ft 238 kts 350°
2026-04-15 14:00 50.11416 9.20994 4448 ft 237 kts 321°
2026-04-15 14:01 50.13779 9.17450 4042 ft 235 kts 314°
2026-04-15 14:01 50.14922 9.15631 4015 ft 236 kts 314°
2026-04-15 14:01 50.15967 9.13670 4018 ft 235 kts 295°
2026-04-15 14:02 50.16345 9.11213 4020 ft 233 kts 261°
2026-04-15 14:02 50.15880 9.08840 4022 ft 232 kts 247°
2026-04-15 14:02 50.15284 9.06493 4018 ft 233 kts 248°
2026-04-15 14:02 50.14718 9.04125 4018 ft 233 kts 248°
2026-04-15 14:03 50.14164 9.01752 4017 ft 233 kts 249°
2026-04-15 14:03 50.13610 8.99377 4017 ft 233 kts 248°
2026-04-15 14:03 50.13055 8.97001 4015 ft 233 kts 248°
2026-04-15 14:03 50.12499 8.94625 4016 ft 233 kts 249°
2026-04-15 14:04 50.11953 8.92292 4009 ft 222 kts 248°
2026-04-15 14:04 50.11436 8.90091 4017 ft 213 kts 249°
2026-04-15 14:04 50.10951 8.88022 4010 ft 197 kts 249°
2026-04-15 14:04 50.10487 8.86052 3965 ft 192 kts 249°
2026-04-15 14:05 50.10029 8.84103 3776 ft 191 kts 248°
2026-04-15 14:05 50.09571 8.82161 3533 ft 190 kts 249°
2026-04-15 14:05 50.09116 8.80229 3290 ft 190 kts 248°
2026-04-15 14:05 50.08660 8.78297 3030 ft 190 kts 248°
2026-04-15 14:06 50.08203 8.76364 2783 ft 190 kts 248°
2026-04-15 14:06 50.07751 8.74447 2527 ft 187 kts 248°
2026-04-15 14:06 50.07307 8.72573 2270 ft 182 kts 248°
2026-04-15 14:06 50.06875 8.70747 2024 ft 177 kts 248°
2026-04-15 14:07 50.06459 8.68991 1791 ft 173 kts 248°
2026-04-15 14:07 50.06061 8.67312 1572 ft 158 kts 249°
2026-04-15 14:07 50.05692 8.65755 1357 ft 149 kts 249°
2026-04-15 14:07 50.05337 8.64261 1154 ft 146 kts 249°
2026-04-15 14:08 50.04994 8.62786 954 ft 144 kts 250°
2026-04-15 14:08 50.04645 8.61325 768 ft 144 kts 249°
2026-04-15 14:08 50.04294 8.59875 581 ft 143 kts 250°
2026-04-15 14:08 50.03949 8.58424 400 ft 142 kts 250°
2026-04-15 14:09 50.03628 8.57071 355 ft 112 kts 249°
2026-04-15 14:09 50.03421 8.56202 351 ft 62 kts 249°
2026-04-15 14:09 50.03280 8.55615 343 ft 56 kts 249°
2026-04-15 14:09 50.03189 8.55210 350 ft 31 kts 258°
2026-04-15 14:10 50.03185 8.54905 337 ft 18 kts 279°
2026-04-15 14:10 50.03206 8.54709 335 ft 19 kts 279°
2026-04-15 14:10 50.03239 8.54557 333 ft 14 kts 308°
2026-04-15 14:10 50.03318 8.54477 336 ft 13 kts 340°
2026-04-15 14:11 50.03399 8.54431 341 ft 11 kts 340°
2026-04-15 14:11 50.03475 8.54387 347 ft 14 kts 340°
2026-04-15 14:11 50.03570 8.54333 347 ft 15 kts 340°
2026-04-15 14:11 50.03648 8.54316 345 ft 10 kts 30°
2026-04-15 14:12 50.03678 8.54402 348 ft 9 kts 69°
2026-04-15 14:12 50.03714 8.54552 347 ft 19 kts 70°
2026-04-15 14:12 50.03759 8.54742 350 ft 18 kts 69°
2026-04-15 14:12 50.03802 8.54920 355 ft 18 kts 69°
2026-04-15 14:13 50.03844 8.55095 355 ft 17 kts 70°
2026-04-15 14:13 50.03884 8.55262 355 ft 16 kts 70°
2026-04-15 14:13 50.03923 8.55425 349 ft 16 kts 69°
2026-04-15 14:13 50.03975 8.55644 353 ft 27 kts 70°
2026-04-15 14:14 50.04032 8.55882 357 ft 16 kts 70°
2026-04-15 14:14 50.04088 8.55970 352 ft 11 kts 358°
2026-04-15 14:14 50.04163 8.55931 354 ft 13 kts 339°
2026-04-15 14:14 50.04238 8.55941 354 ft 10 kts 34°
2026-04-15 14:15 50.04313 8.55946 360 ft 13 kts 342°
2026-04-15 14:15 50.04394 8.55931 362 ft 12 kts 12°
2026-04-15 14:15 50.04470 8.55965 358 ft 11 kts 17°
2026-04-15 14:15 50.04549 8.56031 356 ft 15 kts 57°
2026-04-15 14:16 50.04587 8.56180 363 ft 15 kts 69°
2026-04-15 14:16 50.04623 8.56326 359 ft 14 kts 69°
2026-04-15 14:16 50.04655 8.56468 358 ft 14 kts 70°
2026-04-15 14:16 50.04716 8.56576 359 ft 13 kts 50°
2026-04-15 14:17 50.04753 8.56671 361 ft 7 kts 90°
2026-04-15 14:17 50.04743 8.56714 364 ft 2 kts 112°
2026-04-15 14:17 50.04739 8.56727 363 ft 1 kts 115°
2026-04-15 14:17 50.04737 8.56735 361 ft 0 kts 115°
2026-04-15 14:18 50.04737 8.56736 361 ft 0 kts 115°